Retour au catalogue

STARLINK-32330

ActifCommunicationsVLEO
NORAD 61850·PAYLOAD·🇺🇸 United States

Lancé Nov 7, 2024 depuis Cape Canaveral Space Force Station

Loading…

Prochains Passages (prochaines 24 heures)

TLE

FraisSource: CelesTrak SupGP

Époque: Sep 14, 2026, 21:04 UTC

1 61850C 24202F   26257.87826389  .00033376  00000+0  12089-2 0  2573
2 61850  42.9992 249.1951 0001323 266.6842 168.4161 15.27559887    16

Suivez STARLINK-32330 en temps réel avec AllMySat

Download on the App Store